x

Port Washington, Wi (pwaw3) Weather Station

10:40pm - Tue 12th Dec 2017 All times are CST. -6 hours from GMT.

  • Wind
    2mph, 6mph gusts
  • Air Temp 18°f
  • Sea Pressure 1013.9mb
  • Port Washington, Wi
  • Port Washington, Wi

More Historic Weather Station data

Upgrade to MSW Pro to gain access to the past 30 days of data for over 8000 Wavebouys and Weather Stations around the globe.

Join

Comparision Forecast

View Surf forecast
   
Tue 12/12 10:40pm 2 6 mph 1013.9mb 18f
10:30pm 3 7 mph 1014.2mb 18f
10:20pm 5 8 mph 1014.2mb 18f
10:10pm 5 8 mph 1014.2mb 18f
10:00pm 5 8 mph 1014.6mb 18f
9:40pm 3 7 mph 1014.6mb 18f
9:30pm 3 7 mph 1015.2mb 18f
9:20pm 5 8 mph 1015.6mb 18f
9:10pm 3 8 mph 1015.9mb 18f
9:00pm 5 8 mph 1015.9mb 18f
8:40pm 6 8 mph 1015.6mb 18f
8:30pm 6 8 mph 1015.6mb 17f
8:20pm 5 9 mph 1015.6mb 18f
8:10pm 5 9 mph 1015.6mb 18f
8:00pm 3 8 mph 1015.9mb 18f
7:40pm 6 8 mph 1016.3mb 18f
7:30pm 5 9 mph 1015.9mb 17f
7:20pm 7 10 mph 1015.9mb 17f
7:10pm 5 13 mph 1016.3mb 17f
7:00pm 8 14 mph 1016.6mb 17f
6:40pm 6 15 mph 1016.3mb 17f
6:30pm 7 14 mph 1016.3mb 17f
6:20pm 9 14 mph 1016.6mb 17f
6:10pm 7 11 mph 1016.6mb 17f
6:00pm 7 10 mph 1016.6mb 17f
5:40pm 6 9 mph 1016.6mb 17f
5:30pm 5 9 mph 1016.6mb 17f
5:20pm 5 7 mph 1016.6mb 17f
5:10pm 5 9 mph 1016.9mb 17f
5:00pm 6 9 mph 1016.6mb 17f
4:40pm 5 9 mph 1016.9mb 17f
4:30pm 6 10 mph 1016.9mb 17f
4:20pm 7 11 mph 1016.9mb 18f
4:10pm 10 15 mph 1017.3mb 18f
4:00pm 7 13 mph 1017.3mb 18f
3:40pm 9 15 mph 1017.3mb 18f
3:30pm 11 17 mph 1017.3mb 18f
3:20pm 10 20 mph 1017.3mb 19f
3:10pm 10 18 mph 1017.3mb 18f
3:00pm 15 20 mph 1017.3mb 19f
2:40pm 10 20 mph 1017.3mb 19f
2:30pm 14 21 mph 1017.3mb 19f
2:20pm 8 20 mph 1017.3mb 19f
2:10pm 11 15 mph 1017.6mb 19f
2:00pm 13 16 mph 1017.3mb 19f
1:40pm 9 16 mph 1017.6mb 19f
1:30pm 10 22 mph 1017.6mb 20f
1:20pm 11 20 mph 1017.6mb 20f
1:10pm 10 18 mph 1017.6mb 19f
1:00pm 10 18 mph 1017.6mb 19f
12:40pm 9 16 mph 1017.9mb 20f
12:30pm 13 20 mph 1017.9mb 19f
12:20pm 10 18 mph 1017.9mb 19f
12:10pm 11 20 mph 1017.9mb 19f
12:00pm 8 16 mph 1017.9mb 19f
11:40am 9 16 mph 1018.3mb 19f
11:30am 8 17 mph 1018.6mb 19f
11:20am 7 21 mph 1018.6mb 18f
11:10am 11 17 mph 1018.6mb 19f
11:00am 9 17 mph 1018.6mb 18f
10:40am 14 18 mph 1019mb 19f
10:30am 10 16 mph 1019mb 18f
10:20am 7 16 mph 1019mb 18f
10:10am 9 15 mph 1019mb 18f
10:00am 9 16 mph 1019.3mb 18f
9:40am 11 17 mph 1019.3mb 18f
9:30am 6 16 mph 1019.3mb 18f
9:20am 10 15 mph 1019mb 18f
9:10am 9 16 mph 1019.3mb 18f
9:00am 8 18 mph 1019mb 18f
8:40am 7 16 mph 1019mb 18f
8:30am 9 21 mph 1019mb 19f
8:20am 9 17 mph 1018.6mb 18f
8:10am 8 20 mph 1018.6mb 18f
8:00am 10 22 mph 1018.6mb 18f
7:40am 7 20 mph 1018.6mb 18f
7:30am 9 17 mph 1018.6mb 18f
7:20am 10 17 mph 1018.6mb 17f
7:10am 8 15 mph 1018.6mb 17f
7:00am 7 17 mph 1018.6mb 17f
6:40am 9 18 mph 1018.6mb 18f
6:30am 7 16 mph 1018.6mb 18f
6:20am 7 14 mph 1018.6mb 18f
6:10am 8 18 mph 1018.6mb 18f
6:00am 9 15 mph 1018.3mb 18f
5:40am 8 13 mph 1017.9mb 19f
5:30am 8 15 mph 1017.9mb 19f
5:20am 6 13 mph 1017.6mb 19f
5:10am 8 17 mph 1017.6mb 19f
5:00am 10 20 mph 1017.6mb 19f
4:40am 7 16 mph 1017.3mb 19f
4:30am 13 21 mph 1017.3mb 20f
4:20am 11 24 mph 1017.3mb 20f
4:10am 11 17 mph 1017.3mb 20f
4:00am 7 17 mph 1016.9mb 20f
3:40am 10 18 mph 1016.9mb 20f
3:30am 9 23 mph 1016.9mb 20f
3:20am 11 21 mph 1016.6mb 20f
3:10am 9 20 mph 1016.9mb 20f
3:00am 9 21 mph 1016.9mb 20f
2:40am 14 23 mph 1016.6mb 21f
2:30am 11 23 mph 1016.6mb 21f
2:20am 13 24 mph 1016.6mb 21f
2:10am 13 22 mph 1016.6mb 21f
2:00am 11 18 mph 1016.6mb 21f
1:40am 8 16 mph 1016.3mb 21f
1:30am 9 16 mph 1015.9mb 21f
1:20am 8 17 mph 1015.9mb 22f
1:10am 9 23 mph 1015.9mb 22f
1:00am 13 23 mph 1015.6mb 22f
12:40am 8 15 mph 1015.6mb 22f
12:30am 9 22 mph 1015.2mb 23f
12:20am 7 16 mph 1015.2mb 23f
12:10am 10 21 mph 1015.2mb 23f
12:00am 8 23 mph 1015.2mb 24f
Mon 12/11 11:40pm 18 26 mph 1014.9mb 25f
11:30pm 15 23 mph 1014.6mb 25f
11:20pm 13 26 mph 1014.6mb 26f
11:10pm 15 24 mph 1014.2mb 26f
11:00pm 14 30 mph 1014.2mb 26f
10:50pm 15 29 mph 1013.9mb 26f
10:40pm 17 26 mph 1013.5mb 27f
10:30pm 14 30 mph 1013.5mb 27f
10:20pm 17 29 mph 1013.5mb 28f
10:17pm 15 29 mph 1013.2mb 28f
10:10pm 16 26 mph 1013.2mb 28f
10:00pm 13 26 mph 1012.9mb 28f
9:50pm 16 28 mph 1012.5mb 29f
9:40pm 10 20 mph 1012.5mb 30f
9:30pm 7 16 mph 1012.2mb 31f
9:20pm 8 15 mph 1012.2mb 30f
9:10pm 9 15 mph 1011.9mb 30f
9:00pm 10 16 mph 1011.9mb 30f
8:50pm 10 16 mph 1011.9mb 30f
8:40pm 8 16 mph 1011.9mb 30f
8:30pm 10 16 mph 1011.5mb 30f
8:20pm 9 15 mph 1011.5mb 30f
8:10pm 13 22 mph 1011.5mb 30f
8:00pm 16 24 mph 1011.2mb 30f
7:50pm 10 18 mph 1011.2mb 30f
7:40pm 10 21 mph 1011.2mb 30f
7:30pm 10 26 mph 1010.8mb 30f
7:20pm 11 24 mph 1010.8mb 30f
7:10pm 11 21 mph 1010.5mb 31f
7:00pm 9 20 mph 1010.2mb 31f
6:50pm 10 18 mph 1010.2mb 31f
6:40pm 10 18 mph 1009.8mb 31f
6:30pm 13 20 mph 1009.8mb 31f
6:20pm 10 17 mph 1009.5mb 32f
6:10pm 6 11 mph 1009.5mb 32f
6:00pm 10 15 mph 1008.8mb 32f
5:50pm 5 14 mph 1008.8mb 32f
5:40pm 8 11 mph 1008.8mb 32f
5:30pm 7 11 mph 1008.8mb 33f
5:20pm 2 7 mph 1008.8mb 32f
5:10pm 3 6 mph 1008.8mb 32f
5:00pm 2 5 mph 1008.5mb 32f
4:40pm 2 5 mph 1008.1mb 32f
4:30pm 3 6 mph 1007.8mb 32f
4:20pm 2 3 mph 1008.1mb 33f
4:10pm 1 2 mph 1007.8mb 33f
4:00pm 2 3 mph 1007.8mb 33f
3:50pm 2 5 mph 1007.8mb 33f
3:40pm 3 6 mph 1007.5mb 33f
3:30pm 5 7 mph 1007.5mb 33f
3:20pm 5 7 mph 1007.5mb 33f
3:10pm 5 6 mph 1007.1mb 33f
3:00pm 2 3 mph 1007.1mb 33f
2:50pm 2 3 mph 1006.8mb 33f
2:40pm  -  5 mph 1006.8mb 34f
2:30pm 2 6 mph 1006.8mb 34f
2:20pm 2 6 mph 1006.8mb 34f
2:10pm 5 7 mph 1006.8mb 34f
2:00pm 3 6 mph 1006.8mb 34f
1:50pm 5 8 mph 1007.1mb 34f
1:40pm 5 7 mph 1007.1mb 33f
1:30pm 2 7 mph 1007.1mb 33f
1:20pm 6 7 mph 1007.1mb 33f
1:10pm 6 9 mph 1007.1mb 33f
1:00pm 7 9 mph 1007.5mb 33f
12:50pm 6 8 mph 1007.5mb 32f
12:40pm 7 10 mph 1007.5mb 32f
12:30pm 7 10 mph 1008.1mb 32f
12:20pm 8 11 mph 1008.1mb 32f
12:10pm 7 11 mph 1008.5mb 32f
12:00pm 10 13 mph 1008.5mb 31f
11:50am 9 11 mph 1008.8mb 31f
11:40am 8 14 mph 1008.8mb 31f
11:30am 8 14 mph 1008.8mb 31f
11:20am 8 13 mph 1009.1mb 31f
11:10am 9 13 mph 1009.5mb 30f
11:00am 10 11 mph 1009.5mb 30f
10:50am 9 11 mph 1010.2mb 29f
10:40am 7 9 mph 1010.5mb 29f
10:30am 7 10 mph 1010.8mb 29f
10:20am 6 10 mph 1010.8mb 28f
10:10am 7 11 mph 1011.2mb 28f
10:00am 7 11 mph 1011.5mb 28f
9:50am 8 13 mph 1011.5mb 28f
9:40am 7 13 mph 1011.5mb 28f
9:30am 7 13 mph 1011.9mb 27f
9:20am 7 11 mph 1011.9mb 27f
9:10am 8 10 mph 1012.2mb 27f
9:00am 6 10 mph 1012.5mb 26f
8:50am 6 13 mph 1012.9mb 26f
8:40am 9 11 mph 1012.9mb 26f
8:30am 9 13 mph 1012.9mb 26f
8:20am 8 15 mph 1012.9mb 26f
8:10am 7 14 mph 1013.2mb 26f
8:00am 7 11 mph 1013.5mb 26f
7:50am 7 11 mph 1013.5mb 25f
7:40am 10 13 mph 1013.9mb 25f
7:30am 7 11 mph 1013.9mb 25f
7:20am 9 13 mph 1014.2mb 25f
7:10am 8 13 mph 1014.2mb 25f
7:00am 9 14 mph 1014.6mb 25f
6:50am 8 11 mph 1014.6mb 24f
6:40am 7 11 mph 1014.6mb 24f
6:30am 7 10 mph 1014.9mb 24f
6:20am 5 8 mph 1014.9mb 25f
6:10am 6 9 mph 1015.2mb 25f
6:00am 7 11 mph 1015.2mb 25f
5:50am 6 9 mph 1015.6mb 25f
5:40am 6 10 mph 1015.2mb 25f
5:30am 5 8 mph 1015.6mb 25f
5:20am 7 9 mph 1015.9mb 25f
5:10am 6 8 mph 1015.9mb 25f
5:00am 5 7 mph 1016.3mb 25f
4:50am 5 5 mph 1015.9mb 25f
4:40am 3 5 mph 1015.9mb 25f
4:30am 3 5 mph 1015.9mb 25f
4:20am 5 7 mph 1016.3mb 25f
4:10am 3 6 mph 1016.6mb 25f
4:00am 5 7 mph 1016.6mb 24f
3:50am 3 5 mph 1016.6mb 24f
3:40am 3 6 mph 1016.6mb 24f
3:30am 3 5 mph 1016.6mb 24f
3:20am 5 6 mph 1016.6mb 24f
3:10am 2 5 mph 1016.6mb 24f
3:00am 2 6 mph 1016.9mb 24f
2:50am 6 7 mph 1017.6mb 24f
2:40am 5 6 mph 1017.3mb 24f
2:30am 2 3 mph 1017.3mb 24f
2:20am 2 3 mph 1017.3mb 24f
2:10am 3 5 mph 1017.6mb 24f
2:00am 3 6 mph 1017.6mb 24f
1:50am 5 7 mph 1017.9mb 25f
1:40am 5 6 mph 1017.9mb 25f
1:30am 3 5 mph 1017.9mb 26f
1:20am 1 3 mph 1017.9mb 26f
1:10am 2 3 mph 1017.9mb 26f
1:00am  -  2 mph 1017.9mb 26f
12:50am 1 2 mph 1017.9mb 26f
12:40am 2 5 mph 1017.9mb 26f
12:30am 2 3 mph 1018.3mb 27f
12:20am 2 5 mph 1018.3mb 27f
12:10am 5 6 mph 1018.3mb 27f
12:00am 3 6 mph 1018.3mb 27f
Sun 12/10 11:50pm  -  3 mph 1018.3mb 27f
11:40pm 1 5 mph 1018.3mb 27f
11:30pm 3 5 mph 1018.6mb 27f
11:20pm 2 3 mph 1018.6mb 27f
11:10pm 2 6 mph 1018.6mb 27f
11:00pm 2 6 mph 1018.6mb 27f
10:50pm 3 6 mph 1019mb 27f
10:40pm 5 7 mph 1019mb 27f
10:30pm 5 8 mph 1019mb 27f
10:20pm 3 6 mph 1019mb 27f
10:10pm 3 8 mph 1019mb 27f
10:00pm 7 9 mph 1019mb 27f
9:50pm 6 8 mph 1018.6mb 27f
9:40pm 3 7 mph 1019mb 27f
9:30pm 5 9 mph 1019mb 27f
9:20pm 5 9 mph 1019mb 27f
9:10pm 3 6 mph 1019mb 27f
9:00pm 3 5 mph 1019.3mb 27f
8:50pm 2 6 mph 1019mb 27f
8:40pm 5 6 mph 1019mb 27f
8:30pm 5 6 mph 1019mb 27f
8:20pm 3 6 mph 1019mb 27f
8:10pm 3 6 mph 1019mb 27f
8:00pm 2 5 mph 1019mb 27f
7:50pm 3 6 mph 1019mb 27f
7:40pm 5 7 mph 1019mb 27f
7:30pm 5 7 mph 1019mb 27f
7:20pm 3 7 mph 1019mb 27f
7:10pm 5 7 mph 1018.6mb 27f
7:00pm 5 7 mph 1018.6mb 27f
6:50pm 5 8 mph 1018.3mb 27f
6:40pm 3 7 mph 1018.3mb 27f
6:30pm 5 6 mph 1017.9mb 27f
6:20pm 3 7 mph 1017.9mb 27f
6:10pm 6 11 mph 1018.3mb 27f
6:00pm 7 10 mph 1017.9mb 27f
5:50pm 6 9 mph 1017.9mb 27f
5:40pm 5 11 mph 1017.9mb 27f
5:30pm 7 14 mph 1017.6mb 27f
5:20pm 7 11 mph 1017.6mb 26f
5:10pm 7 11 mph 1017.3mb 26f
5:00pm 6 14 mph 1017.3mb 26f
4:50pm 6 9 mph 1017.3mb 26f
4:40pm 6 13 mph 1016.9mb 26f
4:30pm 7 10 mph 1016.6mb 26f
4:20pm 7 13 mph 1016.3mb 26f
4:10pm 8 16 mph 1016.3mb 26f
4:00pm 11 15 mph 1015.9mb 27f
3:50pm 7 16 mph 1015.6mb 27f
3:40pm 9 20 mph 1015.6mb 27f
3:30pm 9 15 mph 1015.2mb 27f
3:20pm 7 15 mph 1015.2mb 27f
3:10pm 7 13 mph 1014.9mb 27f
3:00pm 8 14 mph 1014.9mb 27f
2:50pm 7 11 mph 1014.6mb 27f
2:40pm 9 15 mph 1014.2mb 27f
2:30pm 5 10 mph 1014.2mb 27f
2:20pm 8 13 mph 1014.2mb 27f
2:10pm 6 15 mph 1013.9mb 27f
2:00pm 8 14 mph 1013.9mb 27f
1:50pm 10 14 mph 1013.9mb 27f
1:40pm 9 16 mph 1013.9mb 27f
1:30pm 7 15 mph 1013.5mb 26f
1:20pm 11 20 mph 1013.5mb 26f
1:10pm 8 18 mph 1013.5mb 27f
1:00pm 11 16 mph 1013.5mb 27f
12:50pm 10 14 mph 1013.2mb 27f
12:40pm 7 16 mph 1013.2mb 27f
12:30pm 8 15 mph 1012.9mb 27f
12:20pm 10 15 mph 1012.9mb 27f
12:10pm 8 15 mph 1012.9mb 26f
12:00pm 11 16 mph 1012.5mb 27f
11:50am 7 16 mph 1012.5mb 26f
11:40am 7 13 mph 1012.5mb 27f
11:30am 9 18 mph 1012.5mb 26f
11:20am 11 17 mph 1012.5mb 26f
11:10am 11 18 mph 1012.5mb 26f
11:00am 11 17 mph 1012.2mb 26f
10:50am 14 17 mph 1012.2mb 26f
10:40am 10 18 mph 1012.2mb 26f
10:30am 10 18 mph 1012.5mb 26f
10:20am 14 17 mph 1012.5mb 26f
10:10am 10 14 mph 1012.5mb 25f
10:00am 9 15 mph 1012.5mb 25f
9:50am 8 17 mph 1012.5mb 25f
9:40am 9 16 mph 1012.5mb 25f
9:30am 8 14 mph 1012.5mb 25f
9:20am 9 15 mph 1012.5mb 25f
9:10am 9 13 mph 1012.9mb 25f
9:00am 8 13 mph 1012.9mb 25f
8:50am 8 15 mph 1012.9mb 25f
8:40am 9 14 mph 1012.5mb 25f
8:30am 11 15 mph 1012.5mb 24f
8:20am 8 15 mph 1012.5mb 24f
8:10am 8 14 mph 1012.5mb 24f
8:00am 7 11 mph 1012.5mb 24f
7:50am 6 11 mph 1012.5mb 24f
7:40am 8 13 mph 1012.5mb 24f
7:30am 7 11 mph 1012.2mb 24f
7:20am 8 10 mph 1012.5mb 23f
7:10am 6 9 mph 1012.5mb 23f
7:00am 6 11 mph 1012.5mb 23f
6:50am 7 9 mph 1012.5mb 23f
6:40am 6 11 mph 1012.5mb 23f
6:30am 7 13 mph 1012.5mb 22f
6:20am 8 14 mph 1012.5mb 22f
6:10am 8 15 mph 1012.5mb 22f
6:00am 9 13 mph 1012.5mb 22f
5:50am 10 13 mph 1012.5mb 22f
5:40am 6 11 mph 1012.5mb 22f
5:30am 5 11 mph 1012.5mb 22f
5:20am 7 11 mph 1012.9mb 22f
5:10am 5 10 mph 1012.5mb 21f
5:00am 6 8 mph 1012.9mb 21f
4:50am 6 9 mph 1012.9mb 21f
4:40am 5 9 mph 1013.2mb 21f
4:30am 7 11 mph 1013.2mb 21f
4:20am 6 10 mph 1013.5mb 20f
4:10am 6 8 mph 1013.5mb 20f
4:00am 6 11 mph 1013.9mb 20f
3:50am 7 9 mph 1013.5mb 20f
3:40am 5 7 mph 1013.9mb 20f
3:30am 5 7 mph 1013.9mb 20f
3:20am 5 7 mph 1014.2mb 20f
3:10am 5 8 mph 1014.2mb 19f
3:00am 5 8 mph 1014.6mb 19f
2:50am 6 9 mph 1014.6mb 19f
2:40am 7 9 mph 1014.6mb 19f
2:30am 7 9 mph 1014.9mb 19f
2:20am 5 9 mph 1014.9mb 19f
2:10am 7 10 mph 1015.2mb 19f
2:00am 3 8 mph 1014.9mb 18f
1:50am 5 8 mph 1015.2mb 18f
1:40am 6 9 mph 1015.2mb 18f
1:30am 7 9 mph 1015.2mb 18f
1:20am 5 9 mph 1015.6mb 18f
1:10am 7 10 mph 1015.6mb 18f
1:00am 7 10 mph 1015.9mb 18f
12:50am 5 11 mph 1015.9mb 18f
12:40am 8 11 mph 1016.3mb 18f
12:30am 8 10 mph 1016.3mb 18f
12:20am 7 10 mph 1016.6mb 18f
12:10am 6 8 mph 1016.9mb 18f
12:00am 5 10 mph 1016.6mb 18f
Sat 12/09 11:50pm 7 11 mph 1016.6mb 18f
11:40pm 6 10 mph 1016.6mb 17f
11:30pm 7 9 mph 1016.9mb 17f
11:20pm 7 9 mph 1016.9mb 17f
11:10pm 6 9 mph 1016.9mb 17f
11:00pm 6 8 mph 1016.9mb 17f
10:50pm 6 9 mph 1017.3mb 17f
10:40pm 5 7 mph 1017.6mb 17f
10:30pm 5 7 mph 1017.6mb 17f
10:20pm 6 8 mph 1017.6mb 17f
10:10pm 3 9 mph 1017.9mb 17f
10:00pm 3 7 mph 1017.6mb 17f
9:50pm 5 9 mph 1017.6mb 17f
9:40pm 6 9 mph 1017.6mb 17f
9:30pm 5 9 mph 1017.9mb 17f
9:20pm 6 9 mph 1017.6mb 17f
9:10pm 3 7 mph 1017.6mb 17f
9:00pm 6 9 mph 1017.6mb 18f
8:50pm 6 9 mph 1017.9mb 18f
8:40pm 6 10 mph 1017.9mb 18f
8:30pm 7 10 mph 1017.9mb 18f
8:20pm 6 10 mph 1017.9mb 19f
8:10pm 7 11 mph 1017.9mb 19f
8:00pm 6 9 mph 1017.9mb 19f
7:50pm 6 9 mph 1017.9mb 19f
7:40pm 7 11 mph 1017.9mb 20f
7:30pm 6 9 mph 1017.9mb 20f
7:20pm 6 10 mph 1017.9mb 20f
7:10pm 8 11 mph 1017.9mb 20f
7:00pm 6 10 mph 1017.9mb 20f
6:50pm 7 9 mph 1017.9mb 21f
6:40pm 6 9 mph 1017.9mb 21f
6:30pm 5 9 mph 1017.6mb 21f
6:20pm 5 8 mph 1017.6mb 22f
6:10pm 6 9 mph 1017.6mb 22f
6:00pm 6 10 mph 1017.3mb 22f
5:50pm 5 9 mph 1017.3mb 22f
5:40pm 3 10 mph 1017.3mb 23f
5:30pm 6 11 mph 1017.3mb 23f
5:20pm 9 13 mph 1017.3mb 24f
5:10pm 11 17 mph 1016.9mb 24f
5:00pm 8 14 mph 1016.9mb 25f
4:50pm 8 15 mph 1016.6mb 25f
4:40pm 7 15 mph 1016.3mb 25f
4:30pm 7 11 mph 1016.3mb 25f
4:20pm 8 15 mph 1015.9mb 26f
4:10pm 10 17 mph 1015.6mb 26f
4:00pm 7 13 mph 1015.6mb 26f
3:50pm 10 18 mph 1015.6mb 26f
3:40pm 7 17 mph 1015.2mb 26f
3:30pm 10 21 mph 1015.2mb 26f
3:20pm 8 18 mph 1014.9mb 26f
3:10pm 10 20 mph 1014.9mb 26f
3:00pm 10 15 mph 1014.6mb 27f
2:50pm 7 17 mph 1014.6mb 27f
2:40pm 8 17 mph 1014.2mb 26f
2:30pm 11 20 mph 1014.2mb 26f
2:20pm 10 16 mph 1013.9mb 26f
2:10pm 11 17 mph 1013.9mb 26f
2:00pm 8 21 mph 1013.9mb 26f
1:50pm 11 18 mph 1013.5mb 26f
1:40pm 10 23 mph 1013.5mb 26f
1:30pm 10 21 mph 1013.2mb 26f
1:20pm 15 25 mph 1013.2mb 26f
1:10pm 14 23 mph 1013.2mb 26f
1:00pm 14 22 mph 1012.9mb 26f
12:50pm 16 22 mph 1012.9mb 26f
12:40pm 9 24 mph 1012.9mb 26f
12:30pm 15 24 mph 1012.5mb 26f
12:20pm 15 24 mph 1012.5mb 26f
12:10pm 16 24 mph 1012.5mb 26f
12:00pm 14 28 mph 1012.2mb 25f
11:50am 14 24 mph 1012.2mb 26f
11:40am 13 20 mph 1012.2mb 25f
11:30am 11 23 mph 1011.9mb 25f
11:20am 11 21 mph 1011.9mb 25f
11:10am 17 24 mph 1011.5mb 25f
11:00am 15 25 mph 1011.2mb 25f
10:50am 15 23 mph 1011.2mb 25f
10:40am 14 21 mph 1011.2mb 25f
10:30am 14 24 mph 1010.8mb 25f
10:20am 10 23 mph 1010.8mb 25f
10:10am 13 24 mph 1010.8mb 25f
10:00am 16 24 mph 1010.2mb 25f
9:50am 16 24 mph 1010.2mb 25f
9:40am 13 24 mph 1009.8mb 26f
9:30am 13 21 mph 1009.8mb 26f
9:20am 13 24 mph 1009.8mb 26f
9:10am 10 23 mph 1009.5mb 25f
9:00am 10 23 mph 1009.1mb 25f
8:50am 13 24 mph 1009.1mb 26f
8:40am 15 23 mph 1008.8mb 26f
8:30am 14 25 mph 1008.8mb 26f
8:20am 13 24 mph 1008.5mb 26f
8:10am 14 23 mph 1008.1mb 26f
8:00am 16 29 mph 1008.1mb 26f
7:50am 14 20 mph 1008.1mb 26f
7:40am 11 21 mph 1007.8mb 26f
7:30am 9 17 mph 1007.5mb 26f
7:20am 10 18 mph 1007.5mb 26f
7:10am 13 18 mph 1007.1mb 26f
7:00am 10 17 mph 1007.1mb 26f
6:50am 9 15 mph 1007.1mb 26f
6:40am 7 18 mph 1006.8mb 26f
6:30am 8 15 mph 1006.8mb 26f
6:20am 8 17 mph 1006.8mb 26f
6:10am 10 15 mph 1006.4mb 26f
6:00am 9 14 mph 1006.1mb 26f
5:50am 9 14 mph 1006.1mb 26f